sat.trackr.live / text

‹ back to catalog

STARLINK-34631

NORAD 64855 · 2025-152P

PAYLOAD ACTIVE UNKNOWN

§ Identity

Operator
Country
US
Launch date
2025-07-19
Launch site
AFWTR
Launch vehicle
Mass (kg)
RCS (m²)

Purposes: comms

External: N2YO · Heavens-Above · Gunter

§ Orbital elements

Epoch: 2026-09-20T14:24:09.016704Z

Period
93.91 min
Inclination
97.2807°
Eccentricity
0.0002421
Mean motion
15.33446880 rev/d
Perigee alt
463.9 km
Apogee alt
467.2 km
Semi-major
6,843.7 km
B*
3.6354e-4
RAAN
114.0703°
Arg perigee
99.2274°
Mean anomaly
260.9243°
Rev number
6,483

§ Raw data

STARLINK-346311 64855U 25152P   26263.60010436  .00011681  00000+0  36354-3 0  99922 64855  97.2807 114.0703 0002421  99.2274 260.9243 15.33446880 64830

JSON: /api/v1/satellites/64855 · /tle

For live sub-satellite position, see the globe view (requires WebGL).

§ Visibility from observer

Set your observer location to see the next 7 days of passes ≥ 10°. The values pass through the URL so the page stays shareable.

No JS? Fill the form by hand. The geolocation button needs JavaScript.